User: anonymous   Login
Location: Caltech
(34.1382°N, 118.1253°W)
Time: 13:18:49
(UTC-07:00)
Language:

AO-Echo - Orbit

View from above orbital plane
View from above orbital plane
View from above satellite
View from above satellite

Ground track
Ground track

The orbit data is extracted from the following two-line orbital elements,

1 28375U 04025K   15149.29369450  .00000133  00000-0  52120-4 0  9995
2 28375 098.2914 090.2810 0083443 027.4836 333.0729 14.41659405573766
Epoch (UTC): 29 May 2015 07:02:55
Eccentricity: 0.0083443
inclination: 98.2914°
perigee height: 693 km
apogee height: 812 km
right ascension of ascending node: 90.2810°
argument of perigee: 27.4836°
revolutions per day: 14.41659405
mean anomaly at epoch: 333.0729°
orbit number at epoch: 57376

The dashed part of the orbit path shows where the satellite is in the earth's shadow,  

DLR